Torna al catalogo

EINSTEIN PROBE

AttivoScienzaVLEO
NORAD 58753·PAYLOAD·🇨🇳 China

Lanciato Jan 9, 2024 da Xichang Satellite Launch Center

Loading…

Prossimi Passaggi (prossime 24 ore)

TLE

AggiornatoSource: Space-Track

Epoca: Sep 14, 2026, 14:28 UTC

1 58753U 24007A   26257.60316126  .00002218  00000-0  15274-3 0  9993
2 58753  29.0004 351.7402 0009748  73.0979 287.0688 15.02248017147023

Traccia EINSTEIN PROBE in tempo reale con AllMySat

Download on the App Store